Tracking 17925 objects as of 20-February-2017
HD Live streaming from Space Station
objects crossing your sky now

SDS-4

Track SDS-4 now!
10-day predictions
SDS-4 is classified as:


NORAD ID: 38339
Int'l Code: 2012-025C
Perigee: 663.6 km
Apogee: 672.8 km
Inclination: 98.4 °
Period: 98.0 minutes
Semi major axis: 7039 km
RCS: 0.47 m2 (medium)
Launch date: May 17, 2012
Source: Japan (JPN)
Launch site: TANEGASHIMA SPACE CENTER (TNSTA)
Your satellite tracking list
Your tracking list is empty





NASA's NSSDC Master Catalog

Two Line Element Set (TLE):
1 38339U 12025C   17050.90200066  .00000103  00000-0  25746-4 0  9994
2 38339  98.3892  40.9803 0006516 292.1148  67.9365 14.70334134255363
Source of the keplerian elements: AFSPC